Temperature
3 4 3 3 3 3 3 5 5 7 6 6 6 5 5 4 3 2 2 2 2 2 1 1 1 1 1 1 1 1 1 1 1 1 1 1 1 1 1 1 1 1 1 0
2 3 2 2 3 3 3 4 4 5 5 6 5 4 4 3 2 2 2 1 1 1 1 1 1 1 1 1 1 1 1 1 1 0 0 0 0 0 0 0 0 -0 -0 -0
3 2 2 3 4 3 3 3 4 4 5 5 4 4 3 3 2 2 1 1 1 1 1 1 0 0 0 0 0 0 0 0 0 -0 -0 -0 -0 -0 -0 -0 -0 -0 -1 -1
2 2 3 6 3 3 3 3 3 3 4 4 4 3 2 2 2 1 1 1 1 1 0 0 -0 -0 -0 -0 -0 -0 -0 -0 -0 -1 -1 -1 -1 -1 -1 -1 -1 -1 -1 -1
1 3 4 4 2 2 2 3 3 3 3 3 2 2 2 2 1 1 1 0 0 0 0 -0 -0 -1 -1 -1 -1 -1 -1 -1 -1 -1 -1 -1 -1 -1 -1 -1 -1 -1 -2 -2
1 2 4 5 2 1 2 3 3 2 2 2 1 3 3 2 1 1 0 0 -0 -0 -0 -1 -1 -1 -1 -1 -1 -1 -1 -1 -1 -1 -1 -1 -2 -2 -2 -2 -2 -2 -2 -2
1 2 4 3 1 1 3 4 2 2 2 1 1 2 1 1 0 0 -0 -0 -0 -0 -0 -1 -1 -1 -1 -1 -1 -1 -1 -1 -1 -2 -2 -2 -2 -2 -2 -2 -2 -2 -2 -3
1 2 3 1 0 2 3 2 1 1 1 1 1 1 0 0 -0 -0 -0 -0 -1 -1 -1 -1 -1 -1 -1 -1 -2 -2 -2 -2 -2 -2 -2 -2 -2 -2 -3 -3 -3 -3 -3 -3
2 3 2 0 1 1 1 1 1 1 1 1 0 0 -0 -0 -0 -1 -1 -1 -1 -1 -1 -1 -1 -2 -2 -2 -2 -2 -2 -2 -2 -2 -2 -3 -3 -3 -3 -3 -3 -3 -3 -3
-0 1 1 -0 0 1 1 1 1 1 1 0 0 -0 -0 -1 -1 -1 -1 -1 -1 -1 -2 -2 -2 -2 -2 -2 -2 -2 -2 -2 -3 -3 -3 -3 -3 -3 -3 -3 -3 -3 -3 -4
-0 0 -0 -0 -0 1 1 1 1 0 0 0 -0 -0 -1 -1 -1 -1 -1 -2 -2 -2 -2 -2 -2 -2 -2 -2 -2 -3 -3 -3 -3 -3 -3 -3 -3 -3 -3 -3 -3 -4 -4 -4
2 1 1 1 1 1 0 0 0 0 -0 -0 -0 -1 -1 -1 -1 -1 -2 -2 -2 -2 -2 -2 -2 -2 -2 -3 -3 -3 -3 -3 -3 -3 -4 -4 -4 -4 -4 -4 -4 -4 -4 -4
0 0 0 0 0 0 0 0 -0 -0 -0 -1 -1 -1 -1 -1 -2 -2 -2 -2 -2 -2 -2 -2 -3 -3 -3 -3 -3 -3 -3 -3 -4 -4 -4 -4 -4 -4 -4 -4 -4 -4 -4 -4
-1 -1 -1 -1 -1 -0 -0 -1 -1 -1 -1 -1 -1 -1 -1 -2 -2 -2 -2 -2 -2 -2 -3 -3 -3 -3 -3 -3 -3 -4 -4 -4 -4 -4 -4 -4 -4 -4 -4 -4 -4 -4 -4 -4
-1 -1 -1 -1 -1 -1 -1 -1 -1 -1 -1 -2 -2 -2 -2 -2 -2 -2 -3 -3 -3 -3 -3 -3 -3 -3 -3 -4 -4 -4 -4 -4 -4 -4 -4 -5 -5 -5 -5 -5 -5 -5 -5 -5
-2 -2 -2 -2 -2 -2 -2 -2 -2 -2 -2 -2 -2 -2 -2 -3 -3 -3 -3 -3 -3 -3 -3 -3 -3 -4 -4 -4 -4 -4 -4 -4 -5 -5 -5 -5 -5 -5 -5 -5 -5 -5 -5 -5
-2 -3 -3 -3 -2 -2 -2 -2 -2 -2 -2 -2 -3 -3 -3 -3 -3 -3 -3 -3 -3 -3 -3 -4 -4 -4 -4 -4 -5 -5 -5 -5 -5 -5 -5 -5 -5 -5 -5 -5 -5 -5 -5 -5
-2 -2 -2 -2 -2 -2 -2 -2 -2 -2 -2 -3 -3 -3 -3 -3 -3 -3 -3 -3 -4 -4 -4 -4 -4 -4 -4 -5 -5 -5 -5 -5 -5 -5 -5 -6 -6 -6 -6 -6 -5 -5 -5 -5
-3 -3 -3 -3 -3 -3 -3 -3 -3 -3 -3 -3 -3 -3 -4 -4 -4 -4 -4 -4 -4 -4 -4 -4 -4 -4 -5 -5 -5 -5 -5 -5 -5 -5 -6 -6 -6 -6 -6 -6 -6 -5 -6 -6
-3 -3 -3 -3 -3 -3 -3 -3 -3 -3 -3 -4 -4 -4 -4 -4 -4 -4 -4 -4 -4 -4 -4 -4 -5 -5 -5 -5 -5 -5 -5 -6 -6 -6 -6 -6 -6 -6 -6 -6 -6 -6 -6 -6
-4 -4 -4 -4 -4 -4 -4 -4 -4 -4 -4 -4 -4 -4 -4 -4 -4 -4 -5 -5 -4 -5 -5 -5 -5 -5 -5 -5 -5 -5 -6 -6 -6 -6 -6 -6 -6 -6 -6 -6 -6 -6 -6 -6
-4 -4 -4 -4 -4 -4 -4 -4 -4 -4 -4 -4 -5 -5 -5 -5 -5 -5 -5 -5 -5 -5 -5 -5 -5 -5 -5 -6 -6 -6 -6 -6 -6 -6 -6 -6 -6 -6 -6 -6 -6 -6 -6 -6
-5 -5 -5 -5 -5 -5 -5 -5 -5 -5 -5 -5 -5 -5 -5 -5 -5 -5 -5 -5 -5 -5 -5 -5 -5 -6 -6 -6 -6 -6 -6 -6 -6 -6 -6 -6 -6 -6 -6 -6 -6 -6 -6 -6
-5 -5 -5 -5 -5 -5 -5 -5 -5 -5 -5 -5 -5 -5 -5 -5 -5 -5 -5 -5 -5 -5 -5 -5 -6 -6 -6 -6 -6 -6 -6 -6 -6 -6 -6 -6 -6 -6 -6 -6 -6 -6 -6 -6
-5 -5 -5 -5 -5 -5 -5 -5 -6 -6 -6 -6 -6 -6 -6 -6 -5 -5 -6 -5 -5 -6 -6 -6 -6 -6 -6 -6 -6 -6 -6 -6 -6 -7 -6 -6 -6 -6 -6 -6 -6 -6 -6 -6
-6 -6 -6 -6 -6 -6 -6 -6 -6 -6 -6 -6 -6 -6 -6 -6 -6 -6 -6 -6 -6 -6 -6 -6 -6 -6 -6 -6 -6 -6 -6 -6 -7 -7 -7 -7 -6 -6 -6 -6 -6 -6 -6 -6
-6 -6 -6 -6 -6 -6 -6 -6 -6 -6 -6 -6 -6 -6 -6 -6 -6 -6 -6 -6 -6 -6 -6 -6 -6 -6 -6 -6 -7 -7 -7 -7 -7 -7 -7 -7 -6 -6 -6 -6 -6 -6 -6 -6
Wind_Speed
7 6 5 8 10 11 12 13 12 12 13 13 10 9 8 7 5 4 4 4 4 4 3 3 3 3 2 2 2 2 2 2 2 2 2 2 2 2 2 3 3 4 4 5
4 5 6 9 13 14 14 14 16 16 16 11 9 7 7 6 5 5 5 5 4 4 3 3 3 3 3 3 3 2 2 2 2 2 2 2 2 2 2 3 3 3 4 5
4 2 4 9 11 14 10 11 11 14 12 7 7 7 7 6 6 6 6 5 5 4 4 3 3 3 3 3 3 2 3 2 2 2 2 2 2 2 3 3 3 3 4 4
2 1 7 4 1 7 10 10 11 11 10 8 7 6 6 6 6 6 6 5 5 4 3 3 3 3 3 2 2 2 2 2 2 2 2 2 2 3 3 3 3 3 4 4
3 5 8 5 3 5 7 8 9 12 11 8 4 5 5 5 5 5 5 4 4 3 3 3 3 2 2 2 2 2 3 3 3 3 3 3 3 3 3 3 3 3 4 4
5 5 7 3 1 2 3 6 5 8 9 6 3 4 4 1 2 3 3 3 2 2 2 3 3 2 2 3 3 3 3 3 3 3 3 4 4 4 3 3 4 4 4 4
8 8 8 3 3 5 5 4 1 5 6 6 6 5 2 2 2 2 2 2 2 2 2 3 3 2 3 3 3 3 3 3 3 3 3 4 4 3 3 3 4 4 4 4
7 8 8 4 7 7 5 2 3 4 5 6 5 4 3 3 2 1 2 2 1 1 2 2 2 2 3 3 3 3 2 2 3 3 3 3 3 3 3 3 3 3 3 4
8 7 2 6 6 4 3 4 4 4 4 5 4 5 4 3 2 2 2 2 1 2 2 2 2 2 3 3 3 2 2 2 2 3 3 3 3 3 3 3 3 3 3 3
6 8 7 7 6 6 5 5 5 4 4 5 5 5 4 3 3 2 2 2 1 2 2 3 3 2 3 3 3 2 3 3 2 3 3 3 3 3 3 3 3 3 3 3
8 8 7 8 9 9 7 6 5 4 4 5 5 4 4 3 3 3 2 2 2 3 3 3 3 3 3 3 2 2 3 3 3 2 3 3 3 3 3 4 4 4 4 4
9 8 7 6 5 6 6 6 6 5 4 4 4 4 4 4 3 3 3 3 3 3 3 3 3 3 3 3 3 3 2 3 2 2 2 2 2 3 3 5 5 6 6 6
9 6 6 6 4 4 5 5 5 5 5 4 4 4 4 3 3 3 3 4 4 4 4 4 3 3 3 3 3 3 3 3 2 2 2 2 3 3 3 3 4 5 5 6
7 5 5 6 5 4 3 3 2 2 3 3 3 3 3 3 3 4 4 4 4 4 4 4 4 4 3 3 3 3 3 3 3 3 3 3 3 3 3 3 3 3 3 4
8 7 6 4 2 2 1 2 2 2 2 2 2 3 4 4 4 4 4 3 3 4 4 4 4 4 3 3 3 3 3 3 3 3 3 3 3 3 3 3 3 3 3 3
4 3 4 4 3 3 2 3 3 4 3 3 3 3 3 3 3 3 3 3 4 4 4 4 5 4 3 3 3 3 3 4 3 3 3 3 3 3 3 3 3 3 3 3
3 3 4 5 6 5 5 5 5 4 4 4 4 3 2 2 2 3 3 3 4 5 5 5 5 4 3 3 3 3 3 3 4 3 3 3 3 3 3 3 3 3 3 3
6 6 6 6 6 6 5 4 4 4 4 4 3 3 3 4 4 4 3 3 3 4 4 4 4 3 3 3 3 3 2 3 3 3 3 3 3 3 3 3 3 3 3 3
4 4 4 4 5 5 5 4 4 4 3 3 3 4 4 4 4 4 3 3 3 4 4 3 3 3 3 4 3 3 3 3 3 3 3 3 3 3 3 3 3 3 3 3
2 2 3 3 3 3 4 3 3 3 3 3 4 4 4 4 3 3 3 4 4 4 3 3 3 3 3 3 3 3 3 3 3 3 3 3 3 3 3 3 3 3 3 3
2 2 2 2 2 2 3 3 3 3 3 3 4 5 4 4 3 3 3 4 4 3 3 4 3 2 2 3 3 3 3 3 3 3 3 3 3 3 3 3 3 3 3 2
1 1 2 2 2 2 2 2 3 3 3 3 4 4 3 3 3 3 4 4 4 4 3 2 2 3 3 3 2 2 3 3 3 3 3 3 3 3 3 3 3 2 2 2
1 1 2 2 2 2 2 2 3 3 4 4 4 4 4 4 3 3 3 3 2 3 3 2 3 4 3 2 2 2 3 3 3 3 3 3 3 3 3 3 2 2 2 2
1 1 1 1 1 1 2 2 2 2 3 3 4 4 4 3 3 3 3 3 3 3 3 3 4 4 3 2 2 2 3 3 2 2 2 2 2 2 3 2 2 2 2 3
1 1 1 1 2 2 2 2 1 1 2 2 2 2 3 3 3 2 2 2 2 2 2 2 3 3 2 2 2 2 2 2 2 2 2 2 2 2 2 2 2 2 2 2
2 2 2 2 2 2 2 2 1 1 1 1 1 1 1 1 1 1 1 1 2 2 1 1 1 1 1 1 1 2 2 2 2 2 2 2 2 2 2 2 3 3 3 3
1 1 1 1 1 1 1 2 2 2 2 2 1 1 1 1 1 1 1 1 1 1 1 1 1 1 1 1 1 1 1 2 2 2 2 2 2 2 2 3 3 3 3 3
Wind_Direction
260 261 235 237 229 216 222 230 239 251 255 264 269 271 272 268 270 272 276 275 267 262 268 278 283 285 286 283 280 274 252 238 249 256 251 244 239 237 243 250 255 256 252 250
256 249 246 255 243 229 233 239 245 259 265 271 275 269 269 262 254 262 268 271 268 261 263 269 276 282 287 281 276 265 255 252 257 258 259 250 242 239 243 251 254 254 253 257
243 258 279 256 236 219 221 224 230 243 255 268 268 261 264 262 253 254 263 267 263 256 255 259 264 271 273 278 276 263 257 256 257 255 257 259 253 246 251 258 260 262 262 263
233 215 241 256 215 216 224 237 233 247 260 259 260 273 272 259 256 260 265 261 259 258 257 258 265 274 277 275 267 257 253 254 256 256 263 268 261 256 261 264 264 266 266 266
204 239 266 271 223 201 213 250 237 240 253 265 284 288 270 247 240 254 260 256 254 256 261 266 269 268 267 271 264 252 251 254 257 257 262 265 262 261 261 261 266 268 266 264
203 230 247 259 172 188 193 259 235 228 240 243 220 253 272 254 267 278 276 260 249 258 270 273 274 263 255 263 259 256 259 261 262 259 257 259 261 265 264 261 264 269 264 263
220 236 260 260 165 165 205 259 232 215 224 213 216 245 286 299 294 290 286 273 252 244 251 259 259 249 251 261 267 272 269 266 264 259 258 256 259 258 255 255 260 264 267 269
205 224 247 168 161 201 242 295 240 226 226 225 233 253 264 267 269 274 290 288 266 253 272 278 264 247 253 268 283 283 269 263 264 266 266 258 252 252 248 248 255 261 264 272
207 226 285 183 211 237 251 251 250 241 238 224 232 244 247 251 254 263 270 274 267 251 274 290 280 255 256 275 282 278 269 267 270 271 264 255 249 247 248 248 252 260 261 268
240 256 258 243 252 257 251 252 251 246 238 224 233 237 241 243 247 255 260 257 248 247 263 284 291 280 265 271 269 261 269 275 271 264 266 262 255 249 246 250 253 255 264 269
247 267 278 259 247 248 252 253 245 241 236 229 224 231 229 234 241 246 254 256 242 244 255 270 280 280 278 268 256 255 262 266 268 265 266 268 264 258 254 254 255 260 262 269
244 245 235 255 255 238 235 240 236 227 232 232 221 222 230 236 240 240 243 247 247 252 255 266 270 275 278 264 246 242 253 263 265 265 266 267 272 278 260 256 268 266 268 269
249 262 257 263 268 242 233 240 240 227 219 225 228 222 226 237 238 239 241 243 245 252 259 264 268 271 272 265 253 244 245 256 263 262 262 263 267 275 287 280 262 264 271 275
240 244 251 251 257 250 237 232 226 227 228 225 220 221 223 230 233 238 245 251 252 253 256 257 260 267 273 264 254 249 250 252 253 254 254 253 258 267 275 283 295 293 280 279
244 243 241 247 249 230 204 182 197 224 222 223 214 213 216 224 233 246 255 256 253 250 252 254 255 265 272 257 253 251 249 247 248 252 254 253 255 261 266 270 278 288 297 295
247 234 219 219 225 221 204 200 211 225 220 218 222 229 233 239 247 256 253 241 241 248 252 254 257 262 262 249 246 248 245 243 249 250 252 254 253 257 262 265 275 282 287 296
217 229 225 230 230 226 223 222 223 226 223 221 229 234 233 234 245 252 256 254 253 253 252 249 254 259 251 240 238 241 243 241 242 247 248 251 253 257 261 265 274 280 282 291
238 236 227 226 223 222 225 227 228 227 229 232 226 221 222 226 239 253 263 270 269 269 263 253 249 251 247 240 239 239 237 239 238 242 250 249 253 257 260 263 271 275 283 291
241 235 232 233 225 214 218 227 233 235 234 221 219 228 236 243 247 252 257 256 254 262 266 258 250 253 249 244 240 234 231 235 240 243 247 253 258 256 257 263 268 271 278 283
243 234 226 227 219 215 219 227 228 232 230 219 221 232 242 248 248 248 249 253 253 258 259 258 254 250 243 237 234 232 228 232 238 242 245 249 252 255 258 263 268 273 277 278
246 230 215 215 229 234 227 216 213 226 232 222 221 231 242 252 249 243 244 261 269 261 253 245 246 244 238 232 230 227 225 232 238 239 243 249 254 259 261 265 269 273 279 284
262 243 237 231 228 253 258 234 221 223 229 234 236 235 237 245 248 253 252 254 262 260 258 245 245 241 234 231 226 222 226 230 234 238 243 248 253 257 259 264 269 277 284 287
283 266 252 242 235 252 273 252 228 222 225 231 233 232 234 240 239 243 263 258 255 253 257 249 243 237 225 226 226 223 225 231 237 242 245 249 252 253 255 262 267 272 279 284
283 272 263 254 208 214 248 261 253 244 239 242 238 233 232 239 252 250 259 251 252 258 258 249 246 239 228 228 223 223 227 233 236 241 247 251 254 255 257 262 268 275 277 280
277 272 245 211 216 233 238 245 263 263 247 248 252 243 233 233 241 256 257 244 246 262 263 248 243 242 237 224 220 224 229 233 236 239 245 252 257 259 262 265 267 271 272 275
269 259 253 254 254 243 232 228 238 243 241 253 272 272 262 251 233 239 240 235 240 248 255 254 252 245 234 223 225 230 236 244 249 248 246 251 257 261 264 266 272 273 272 273
276 268 259 271 273 242 229 228 230 237 236 235 258 278 280 268 235 221 220 230 229 232 246 254 251 245 237 232 231 236 240 242 242 241 241 243 248 254 260 263 268 271 273 272
Height
1479 1479 1480 1479 1480 1483 1483 1475 1472 1462 1463 1460 1462 1463 1464 1464 1463 1463 1463 1463 1463 1462 1462 1461 1461 1461 1460 1460 1460 1460 1459 1459 1459 1459 1459 1459 1458 1458 1459 1459 1459 1458 1458 1458
1481 1479 1479 1479 1475 1476 1476 1473 1468 1465 1462 1459 1461 1462 1461 1460 1461 1460 1460 1460 1460 1459 1459 1459 1458 1458 1457 1457 1457 1457 1457 1457 1456 1456 1456 1456 1455 1455 1455 1455 1455 1455 1455 1454
1472 1478 1478 1468 1463 1466 1467 1465 1463 1460 1456 1457 1458 1458 1458 1457 1457 1457 1457 1457 1457 1456 1456 1456 1456 1455 1455 1455 1454 1454 1454 1454 1453 1453 1453 1452 1452 1452 1452 1452 1451 1451 1451 1450
1476 1478 1469 1453 1459 1458 1459 1459 1459 1457 1455 1455 1455 1455 1455 1455 1455 1454 1454 1454 1454 1453 1453 1453 1453 1453 1452 1452 1451 1451 1451 1450 1450 1450 1449 1449 1449 1449 1449 1448 1448 1447 1447 1446
1475 1467 1455 1453 1457 1458 1459 1455 1454 1453 1452 1453 1454 1453 1452 1451 1451 1452 1451 1451 1451 1451 1451 1450 1450 1450 1449 1448 1448 1448 1447 1447 1447 1446 1446 1446 1446 1445 1445 1445 1444 1444 1443 1442
1472 1465 1454 1447 1454 1455 1457 1452 1448 1449 1449 1450 1452 1451 1448 1449 1449 1449 1449 1448 1448 1448 1448 1448 1447 1447 1446 1445 1445 1445 1444 1444 1444 1443 1443 1443 1442 1442 1442 1441 1441 1440 1440 1439
1466 1461 1449 1449 1453 1455 1453 1444 1445 1446 1447 1448 1449 1448 1448 1447 1446 1446 1446 1446 1446 1445 1445 1445 1445 1444 1443 1443 1442 1442 1442 1441 1440 1440 1440 1439 1439 1439 1439 1438 1438 1437 1436 1436
1461 1458 1449 1448 1451 1449 1444 1443 1443 1444 1444 1445 1445 1445 1445 1444 1444 1444 1443 1443 1443 1443 1443 1443 1442 1442 1441 1440 1440 1439 1439 1438 1437 1437 1437 1437 1436 1436 1436 1435 1435 1434 1433 1432
1450 1446 1443 1444 1443 1442 1442 1442 1442 1442 1442 1442 1442 1442 1442 1442 1442 1441 1441 1441 1441 1441 1441 1441 1440 1440 1439 1438 1437 1437 1436 1435 1435 1434 1434 1434 1433 1433 1433 1432 1431 1431 1430 1429
1448 1442 1441 1441 1440 1440 1440 1439 1439 1440 1440 1440 1440 1440 1440 1440 1439 1439 1439 1439 1439 1439 1439 1438 1438 1437 1437 1436 1435 1434 1434 1433 1433 1432 1432 1431 1431 1430 1430 1429 1429 1428 1427 1426
1443 1439 1439 1437 1436 1436 1436 1436 1436 1437 1437 1437 1437 1437 1437 1437 1437 1437 1437 1437 1437 1437 1436 1436 1436 1435 1435 1434 1433 1432 1431 1431 1430 1430 1429 1428 1428 1427 1427 1427 1426 1426 1425 1424
1433 1433 1434 1432 1431 1432 1432 1433 1433 1434 1434 1434 1435 1435 1435 1435 1435 1435 1435 1434 1435 1435 1434 1434 1433 1433 1432 1432 1431 1430 1429 1428 1428 1427 1426 1426 1425 1424 1424 1424 1423 1422 1422 1421
1429 1428 1429 1428 1428 1428 1429 1430 1430 1431 1431 1431 1432 1432 1432 1432 1432 1432 1432 1432 1432 1432 1431 1431 1430 1430 1429 1429 1428 1427 1427 1426 1425 1424 1424 1423 1422 1422 1421 1421 1420 1419 1418 1418
1425 1425 1425 1425 1425 1425 1426 1426 1427 1427 1428 1428 1429 1429 1430 1430 1430 1430 1430 1429 1429 1429 1429 1428 1427 1427 1426 1426 1425 1425 1424 1424 1423 1422 1421 1421 1420 1419 1419 1418 1417 1416 1416 1415
1420 1421 1421 1422 1422 1422 1423 1424 1424 1424 1425 1426 1426 1427 1427 1427 1427 1427 1427 1427 1426 1426 1425 1425 1424 1424 1423 1423 1422 1422 1421 1421 1420 1419 1419 1418 1417 1417 1416 1415 1414 1413 1413 1412
1416 1417 1417 1418 1419 1420 1420 1421 1421 1422 1422 1423 1423 1424 1424 1424 1424 1424 1424 1424 1423 1422 1422 1421 1421 1420 1420 1420 1419 1419 1418 1418 1417 1417 1416 1415 1415 1414 1414 1413 1412 1411 1410 1410
1413 1413 1414 1415 1415 1416 1417 1418 1419 1419 1420 1420 1420 1421 1421 1421 1421 1420 1420 1420 1420 1419 1419 1418 1418 1417 1417 1417 1416 1416 1415 1415 1415 1414 1413 1413 1412 1412 1411 1410 1410 1409 1408 1408
1410 1411 1411 1411 1412 1413 1414 1416 1416 1417 1417 1417 1418 1418 1417 1417 1417 1417 1417 1417 1416 1416 1416 1415 1415 1414 1414 1414 1414 1413 1413 1412 1412 1411 1411 1411 1410 1409 1409 1408 1408 1407 1406 1406
1406 1407 1408 1409 1410 1411 1412 1413 1413 1414 1414 1414 1414 1414 1414 1414 1414 1414 1414 1413 1413 1413 1413 1412 1412 1412 1411 1411 1411 1411 1410 1410 1410 1409 1409 1408 1408 1407 1407 1406 1405 1405 1404 1403
1403 1404 1405 1405 1407 1408 1409 1409 1410 1411 1411 1411 1411 1411 1411 1411 1411 1411 1411 1410 1410 1410 1410 1409 1409 1409 1409 1409 1409 1408 1408 1408 1407 1407 1407 1406 1406 1405 1404 1404 1403 1402 1402 1401
1401 1402 1402 1403 1404 1405 1406 1406 1407 1407 1408 1408 1408 1407 1408 1408 1408 1408 1407 1407 1407 1407 1407 1407 1406 1406 1406 1406 1406 1406 1406 1405 1405 1405 1404 1404 1403 1403 1402 1401 1401 1400 1399 1399
1400 1400 1400 1401 1401 1402 1403 1404 1404 1404 1404 1404 1404 1404 1404 1404 1405 1405 1405 1405 1405 1404 1404 1404 1404 1403 1403 1403 1403 1403 1403 1403 1403 1403 1402 1402 1401 1400 1400 1399 1398 1398 1397 1397
1399 1399 1399 1399 1399 1400 1400 1401 1401 1401 1401 1401 1401 1401 1401 1401 1401 1402 1402 1402 1402 1402 1401 1401 1401 1401 1401 1401 1401 1401 1401 1401 1401 1400 1400 1400 1399 1398 1398 1397 1397 1396 1396 1395
1398 1397 1397 1397 1398 1398 1398 1398 1398 1398 1398 1398 1398 1398 1399 1398 1398 1399 1399 1399 1399 1399 1399 1399 1399 1398 1398 1398 1398 1398 1398 1398 1398 1398 1398 1397 1397 1396 1396 1395 1395 1394 1394 1393
1396 1396 1396 1396 1395 1395 1395 1395 1395 1395 1395 1395 1395 1396 1396 1396 1396 1396 1396 1396 1396 1396 1396 1396 1396 1396 1396 1396 1396 1396 1396 1396 1396 1396 1396 1395 1395 1395 1394 1394 1393 1393 1392 1392
1395 1394 1394 1394 1394 1394 1393 1393 1393 1392 1393 1392 1393 1393 1393 1393 1393 1393 1393 1393 1394 1393 1393 1393 1394 1394 1394 1394 1394 1394 1394 1394 1394 1394 1394 1393 1393 1393 1392 1392 1392 1392 1391 1391
1393 1393 1392 1392 1392 1392 1391 1391 1391 1391 1391 1391 1391 1391 1391 1391 1391 1391 1391 1391 1391 1391 1391 1391 1392 1392 1391 1392 1392 1392 1392 1392 1392 1392 1392 1392 1391 1391 1391 1391 1390 1390 1390 1389